Погода в Верхних Шипках

Россия / Республика Татарстан     55°19′55″N   51°51′48″E
темп.,
°C
ветер,
м/с
пор.,
м/с
влажн.,
%
обл.,
%
осадки,
мм/ч
давл.,
гПа
погр.,
м
22 апреля, чт
чт2200:00+3ю91688100 1.6 1025917
03:00+2ю71596100 4.1 1025613
06:00+3ю71496100 1.1 1026601
09:00+5ю61189100 1.1 1026673
12:00+6ю6117897 0.0 1026704
15:00+8ю61068100 0.0 1026778
18:00+7ю61176100 0.0 1026645
21:00+5ю511800 0.0 1026374
23 апреля, пт
пт2300:00+3ю6129010 0.0 1026352
03:00+3ю5109295 0.0 1027320
06:00+4ю4891100 0.0 1027297
09:00+7ююв457899 0.0 1028493
12:00+12юв346182 0.0 10261072
15:00+14вюв4454100 0.0 10241523
18:00+11вюв3665100 0.0 1024194
21:00+10в3771100 0.0 1023194
24 апреля, сб
сб2400:00+8вюв3780100 0.0 1021170
03:00+7вюв4791100 0.1 1019381
06:00+6в4891100 1.4 10171014
09:00+7вюв5990100 2.4 10151113
12:00+7вюв5787100 0.6 10141002
15:00+6юв5688100 0.6 1013659
18:00+6юв4793100 0.6 1012445
21:00+6юв4894100 0.9 1011361
25 апреля, вс
вс2500:00+6юв4993100 0.0 1009315
03:00+6ююв61291100 0.3 1007534
06:00+5з6119192 4.9 1007740
09:00+6зюз71069100 4.9 10091163
12:00+7юз6768100 0.1 10101351
15:00+5з688885 3.2 1012629
18:00+6юз498173 0.8 1013372
21:00+5юз6128314 0.8 1015312
26 апреля, пн
пн2600:00+4юз511895 0.1 1017328
03:00+2юз410900 0.1 1018240
06:00+3юз411804 0.0 1019331
09:00+8юз710585 0.0 10191405
12:00+10зюз6947100 0.0 10182318
15:00+11юз5742100 0.0 10172136
18:00+9ююз3658100 0.0 1016134
21:00+6ю346396 0.0 101548